Weather History for KMDW - July, 2014

Change the Weather History Date:

Saturday, July 5, 2014

  Actual Average Record
Temperature  
Mean Temperature 71 °F 76 °F  
Max Temperature 79 °F 84 °F 103 °F (2012)
Min Temperature 63 °F 67 °F 46 °F (1972)
Degree Days  
Heating Degree Days 0 0  
Month to date heating degree days 0 0  
Since 1 June heating degree days 2 31  
Since 1 July heating degree days 0 0  
Cooling Degree Days 6 11  
Month to date cooling degree days 24 53  
Year to date cooling degree days 386 337  
Since 1 June cooling degree days 275 263  
Growing Degree Days 22 (Base 50)    
Moisture  
Dew Point 55 °F    
Average Humidity 55    
Maximum Humidity 73    
Minimum Humidity 31    
Precipitation  
Precipitation 0.01 in 0.13 in 1.18 in (1971)
Month to date precipitation 0.22 0.56  
Year to date precipitation 19.23 19.11  
Sea Level Pressure  
Sea Level Pressure 30.16 in    
Wind  
Wind Speed 10 mph (SSW)    
Max Wind Speed 18 mph    
Max Gust Speed 24 mph    
Visibility 9 miles    
Events Rain    
T = Trace of Precipitation, MM = Missing Value Source: NWS Daily Summary

Daily Weather History Graph

Daily Weather History Graph

Search for Another Location

Airport or City:

Trip Planner

Search our weather history database for the weather conditions in past years. The results will help you decide how hot, cold, wet, or windy it might be!

Date:

Astronomy

Jul. 05, 2014 Rise Set
Actual Time 5:22 AM CDT 8:28 PM CDT
Civil Twilight 4:48 AM CDT 9:02 PM CDT
Nautical Twilight 4:04 AM CDT 9:45 PM CDT
Astronomical Twilight 3:13 AM CDT 10:37 PM CDT
Moon 1:23 PM CDT (7/5) 12:14 AM CDT (7/5)
Length of Visible Light 16h 14m
Length of Day
15h 06m
First Quarter, 52% of the Moon is Illuminated
Jul 5
First Quarter
Jul 12
Full
Jul 18
Last Quarter
Jul 26
New
Aug 3
First Quarter

Hourly Weather History & Observations

Time (CDT) Temp. Dew Point Humidity Pressure Visibility Wind Dir Wind Speed Gust Speed Precip Events Conditions
12:51 AM 66.2 °F 55.4 °F 68% 30.24 in 6.0 mi SE 3.5 mph - N/A   Haze
1:51 AM 66.0 °F 54.0 °F 65% 30.24 in 6.0 mi South 4.6 mph - N/A   Haze
2:51 AM 66.0 °F 52.0 °F 60% 30.25 in 6.0 mi South 3.5 mph - N/A   Haze
3:51 AM 64.9 °F 52.0 °F 63% 30.24 in 6.0 mi South 3.5 mph - N/A   Haze
4:51 AM 64.0 °F 52.0 °F 65% 30.25 in 6.0 mi South 4.6 mph - N/A   Haze
5:51 AM 64.0 °F 52.0 °F 65% 30.25 in 8.0 mi South 3.5 mph - N/A   Mostly Cloudy
6:51 AM 66.0 °F 53.1 °F 63% 30.23 in 10.0 mi South 5.8 mph - N/A   Mostly Cloudy
7:51 AM 69.1 °F 54.0 °F 58% 30.22 in 10.0 mi South 5.8 mph - N/A   Mostly Cloudy
8:51 AM 73.0 °F 55.9 °F 55% 30.25 in 10.0 mi SSW 9.2 mph - N/A   Mostly Cloudy
9:51 AM 75.9 °F 55.0 °F 48% 30.24 in 10.0 mi SSW 12.7 mph - N/A   Mostly Cloudy
10:51 AM 78.1 °F 54.0 °F 43% 30.21 in 10.0 mi SSW 11.5 mph - N/A   Overcast
11:51 AM 78.1 °F 54.0 °F 43% 30.19 in 10.0 mi SSW 13.8 mph 20.7 mph N/A   Overcast
12:51 PM 78.8 °F 53.6 °F 42% 30.21 in 10.0 mi SW 13.8 mph - N/A   Overcast
1:51 PM 78.1 °F 55.0 °F 45% 30.16 in 10.0 mi SW 15.0 mph 21.9 mph N/A   Overcast
2:51 PM 78.1 °F 54.0 °F 43% 30.14 in 10.0 mi WSW 12.7 mph - N/A   Overcast
3:51 PM 79.0 °F 54.0 °F 42% 30.12 in 10.0 mi South 15.0 mph - N/A   Overcast
4:51 PM 79.0 °F 55.0 °F 44% 30.10 in 10.0 mi SSW 13.8 mph - N/A   Overcast
5:51 PM 78.1 °F 55.0 °F 45% 30.09 in 10.0 mi SSW 16.1 mph - N/A   Overcast
6:51 PM 75.9 °F 55.0 °F 48% 30.07 in 10.0 mi SSW 11.5 mph - N/A   Overcast
7:51 PM 73.0 °F 59.0 °F 61% 30.07 in 10.0 mi SSW 11.5 mph - 0.00 in Rain Light Rain
8:51 PM 71.1 °F 61.0 °F 70% 30.07 in 10.0 mi SSW 6.9 mph - 0.01 in Rain Light Rain
9:51 PM 71.1 °F 62.1 °F 73% 30.06 in 10.0 mi SSW 5.8 mph - 0.00 in   Overcast
10:51 PM 71.1 °F 60.1 °F 68% 30.04 in 10.0 mi SSW 9.2 mph - N/A   Overcast
11:51 PM 71.1 °F 60.1 °F 68% 30.02 in 10.0 mi SSW 11.5 mph - N/A   Mostly Cloudy